This is the latest recevied weather packets stored in our database for station/object K4AGR-13. If no packets are shown the sender has not sent any weather packets the latest 10 day(s).
| Time | Temp. | Humidity | Pressure | Rain* | Wind** | Luminosity | Snow |
|---|---|---|---|---|---|---|---|
| 1777584798 | 26.67° C | 56% | 1010.3 hPa | 0 mm | - | 199 W/m² | - |
| 1777584496 | 27.22° C | 55% | 1010.3 hPa | 0 mm | - | 630 W/m² | - |
| 1777584193 | 26.67° C | 56% | 1010.3 hPa | 0 mm | - | 643 W/m² | - |
| 1777583892 | 26.67° C | 57% | 1010.5 hPa | 0 mm | - | 480 W/m² | - |
| 1777583588 | 26.67° C | 56% | 1010.4 hPa | 0 mm | - | 397 W/m² | - |
| 1777583287 | 27.78° C | 54% | 1010.2 hPa | 0 mm | - | 676 W/m² | - |
| 1777582982 | 27.22° C | 55% | 1010.5 hPa | 0 mm | - | 672 W/m² | - |
| 1777582680 | 26.67° C | 57% | 1010.5 hPa | 0 mm | - | 743 W/m² | - |
| 1777582380 | 26.67° C | 57% | 1010.4 hPa | 0 mm | - | 504 W/m² | - |
| 1777582078 | 27.22° C | 57% | 1010.4 hPa | 0 mm | - | 556 W/m² | - |
| 1777581773 | 26.67° C | 57% | 1010.4 hPa | 0 mm | - | 654 W/m² | - |
| 1777581472 | 26.67° C | 59% | 1010.5 hPa | 0 mm | - | 524 W/m² | - |
| 1777581168 | 26.67° C | 58% | 1010.6 hPa | 0 mm | - | 361 W/m² | - |
| 1777580868 | 26.11° C | 60% | 1010.6 hPa | 0 mm | - | 428 W/m² | - |
| 1777580563 | 26.11° C | 61% | 1010.7 hPa | 0 mm | - | 392 W/m² | - |
| 1777580259 | 26.11° C | 61% | 1010.7 hPa | 0 mm | - | 323 W/m² | - |
| 1777579956 | 25.56° C | 61% | 1011 hPa | 0 mm | - | 312 W/m² | - |
| 1777579651 | 25.56° C | 62% | 1011 hPa | 0 mm | - | 237 W/m² | - |
| 1777579350 | 26.11° C | 61% | 1010.8 hPa | 0 mm | - | 283 W/m² | - |
| 1777579045 | 26.11° C | 60% | 1010.7 hPa | 0 mm | - | 429 W/m² | - |
| 1777578741 | 26.67° C | 59% | 1010.7 hPa | 0 mm | - | 409 W/m² | - |
| 1777578441 | 26.11° C | 60% | 1010.7 hPa | 0 mm | - | 410 W/m² | - |
| 1777578136 | 26.11° C | 60% | 1010.9 hPa | 0 mm | - | 437 W/m² | - |
| 1777577832 | 26.11° C | 60% | 1010.8 hPa | 0 mm | - | 506 W/m² | - |
| 1777577528 | 26.11° C | 61% | 1010.8 hPa | 0 mm | - | 379 W/m² | - |
* Rain latest hour (hover to see other rain measurements)
** Current wind speed in m/s (hover to see current wind gust speed)